Location: Oberwangen
(47.4286°N, 8.9679°E)
Time: 15:38:24
(UTC+00:00)

Cosmos 1025 Rocket - Pass Details

Date: 20 June 2021
Orbit: 593 x 619 km, 82.5° (Epoch: 02 August)

Event Time Altitude Azimuth Distance (km) Brightness Sun altitude
Exits shadow 20:23:42 - 176° (S) 2,460 5.7 -8.2°
Reaches altitude 10° 20:24:55 10° 174° (S) 1,973 5.2 -8.3°
Maximum altitude 20:29:13 59° 95° (E) 715 3.2 -8.8°
Drops below altitude 10° 20:33:31 10° 17° (NNE) 1,977 6.1 -9.2°
Sets 20:35:45 0° 13° (NNE) 2,882 7.1 -9.5°
